Estación Meteorológica de la Universidad de Murcia
Estación Meteorológica de la Universidad de Murcia
Universidad de Murcia
 

Temperatura ambienteTemperatura ambiente

 

Máxima: 32,4 ºC a las 14:43:00 del día 20/08/2017
Mínima: 24,1 ºC a las 06:09:00 del día 20/08/2017

||Temperatura máxima últimos meses|| ---- ||Temperatura mínima últimos meses||


Temperatura máxima

  • 1 - 32,4 ºC del día 20/08/2017
  • 2 - 33,8 ºC del día 19/08/2017
  • 3 - 36,7 ºC del día 18/08/2017
  • 4 - 36,3 ºC del día 17/08/2017
  • 5 - 36,3 ºC del día 16/08/2017
  • 6 - 34,4 ºC del día 15/08/2017
  • 7 - 32,3 ºC del día 14/08/2017
  • 8 - 31,9 ºC del día 13/08/2017
  • 9 - 31,6 ºC del día 12/08/2017
  • 10 - 31,3 ºC del día 11/08/2017
  • 11 - 28,2 ºC del día 10/08/2017
  • 12 - 35,9 ºC del día 09/08/2017
  • 13 - 40,4 ºC del día 08/08/2017
  • 14 - 36,6 ºC del día 07/08/2017
  • 15 - 34,6 ºC del día 06/08/2017
  • 16 - 38,9 ºC del día 05/08/2017
  • 17 - 39,4 ºC del día 04/08/2017
  • 18 - 40,8 ºC del día 03/08/2017
  • 19 - 36,2 ºC del día 02/08/2017
  • 20 - 36,5 ºC del día 01/08/2017
  • 21 - 35,8 ºC del día 31/07/2017
  • 22 - 40,4 ºC del día 30/07/2017
  • 23 - 37,4 ºC del día 29/07/2017
  • 24 - 39 ºC del día 28/07/2017
  • 25 - 37,9 ºC del día 27/07/2017
  • 26 - 35,6 ºC del día 26/07/2017
  • 27 - 33 ºC del día 25/07/2017
  • 28 - 36,3 ºC del día 24/07/2017
  • 29 - 35,5 ºC del día 23/07/2017
  • 30 - 34,4 ºC del día 22/07/2017
  • 31 - 34,8 ºC del día 21/07/2017
  • 32 - 35,2 ºC del día 20/07/2017
  • 33 - 35,7 ºC del día 19/07/2017
  • 34 - 34,9 ºC del día 18/07/2017
  • 35 - 34,2 ºC del día 17/07/2017
  • 36 - 34,5 ºC del día 16/07/2017
  • 37 - 33 ºC del día 15/07/2017
  • 38 - 33,4 ºC del día 14/07/2017
  • 39 - 36,7 ºC del día 13/07/2017
  • 40 - 38,8 ºC del día 12/07/2017
  • 41 - 35 ºC del día 11/07/2017
  • 42 - 36,2 ºC del día 10/07/2017
  • 43 - 37,1 ºC del día 09/07/2017
  • 44 - 34,5 ºC del día 08/07/2017
  • 45 - 29,7 ºC del día 07/07/2017
  • 46 - 33,2 ºC del día 06/07/2017
  • 47 - 31,3 ºC del día 05/07/2017
  • 48 - 30,9 ºC del día 04/07/2017
  • 49 - 31,3 ºC del día 03/07/2017
  • 50 - 29,6 ºC del día 02/07/2017
  • 51 - 27 ºC del día 01/07/2017
  • 52 - 30,2 ºC del día 30/06/2017
  • 53 - 32,6 ºC del día 29/06/2017
  • 54 - 34,3 ºC del día 28/06/2017
  • 55 - 36,2 ºC del día 27/06/2017
  • 56 - 35,9 ºC del día 26/06/2017
  • 57 - 34,4 ºC del día 25/06/2017
  • 58 - 39,4 ºC del día 24/06/2017
  • 59 - 39,7 ºC del día 23/06/2017
  • 60 - 35,8 ºC del día 22/06/2017

||Volver al inicio de la página||


Temperatura mínima

  • 1 - 24,1 ºC del día 20/08/2017
  • 2 - 24,1 ºC del día 19/08/2017
  • 3 - 23,8 ºC del día 18/08/2017
  • 4 - 24,6 ºC del día 17/08/2017
  • 5 - 23,9 ºC del día 16/08/2017
  • 6 - 22 ºC del día 15/08/2017
  • 7 - 21,3 ºC del día 14/08/2017
  • 8 - 20,4 ºC del día 13/08/2017
  • 9 - 20,3 ºC del día 12/08/2017
  • 10 - 20 ºC del día 11/08/2017
  • 11 - 20,2 ºC del día 10/08/2017
  • 12 - 24,3 ºC del día 09/08/2017
  • 13 - 24,4 ºC del día 08/08/2017
  • 14 - 25,6 ºC del día 07/08/2017
  • 15 - 25,9 ºC del día 06/08/2017
  • 16 - 24,9 ºC del día 05/08/2017
  • 17 - 25 ºC del día 04/08/2017
  • 18 - 24,5 ºC del día 03/08/2017
  • 19 - 26,6 ºC del día 02/08/2017
  • 20 - 25,3 ºC del día 01/08/2017
  • 21 - 23 ºC del día 31/07/2017
  • 22 - 23,1 ºC del día 30/07/2017
  • 23 - 22,3 ºC del día 29/07/2017
  • 24 - 22,8 ºC del día 28/07/2017
  • 25 - 23,4 ºC del día 27/07/2017
  • 26 - 24,3 ºC del día 26/07/2017
  • 27 - 23 ºC del día 25/07/2017
  • 28 - 21,9 ºC del día 24/07/2017
  • 29 - 23,8 ºC del día 23/07/2017
  • 30 - 22,6 ºC del día 22/07/2017
  • 31 - 24,7 ºC del día 21/07/2017
  • 32 - 23,2 ºC del día 20/07/2017
  • 33 - 23,3 ºC del día 19/07/2017
  • 34 - 23,7 ºC del día 18/07/2017
  • 35 - 20,9 ºC del día 17/07/2017
  • 36 - 21,9 ºC del día 16/07/2017
  • 37 - 22,8 ºC del día 15/07/2017
  • 38 - 25,4 ºC del día 14/07/2017
  • 39 - 24,9 ºC del día 13/07/2017
  • 40 - 22,2 ºC del día 12/07/2017
  • 41 - 21,9 ºC del día 11/07/2017
  • 42 - 22,3 ºC del día 10/07/2017
  • 43 - 22,3 ºC del día 09/07/2017
  • 44 - 20,6 ºC del día 08/07/2017
  • 45 - 22,2 ºC del día 07/07/2017
  • 46 - 23,9 ºC del día 06/07/2017
  • 47 - 19,4 ºC del día 05/07/2017
  • 48 - 18,3 ºC del día 04/07/2017
  • 49 - 18,3 ºC del día 03/07/2017
  • 50 - 17,4 ºC del día 02/07/2017
  • 51 - 17,7 ºC del día 01/07/2017
  • 52 - 20,8 ºC del día 30/06/2017
  • 53 - 23,3 ºC del día 29/06/2017
  • 54 - 24 ºC del día 28/06/2017
  • 55 - 23,2 ºC del día 27/06/2017
  • 56 - 22,4 ºC del día 26/06/2017
  • 57 - 22,6 ºC del día 25/06/2017
  • 58 - 22,6 ºC del día 24/06/2017
  • 59 - 22 ºC del día 23/06/2017
  • 60 - 21,2 ºC del día 22/06/2017

 

|| Humedad relativa|| Velocidad y dirección del viento|| Precipitación|| Radiación Solar Global y PAR|| Temperatura y humedad del suelo|| Presión atmosférica|| Más información|| Volver a la página principal|| Volver al inicio de la página||


Estación Meteorológica de la Universidad de Murcia
http://estacion.um.es/
Informacion actualizada a: 21/08/2017 a las 17:41:00